Wind_Speed
21 21 22 22 22 22 22 22 22 23 23 23 22 22 23 23 24 24 25 25 25 23 22 21 18 18 19 19 17 17 18 20 20 21 25 27 20 18 19 12 10 16 19 17 15 14 13 13 14 14 14 12 10 10 9 9 8 6 5 7 7 7 6 7 8 6 1 2 4 4 5 5 4 7 7 5 5 6 6 9 10 10 12 11 7 5 4 7
21 21 21 21 22 22 22 23 23 23 23 24 23 23 23 23 24 23 24 25 25 25 23 22 19 18 18 18 17 16 18 19 19 24 29 26 23 23 21 16 14 14 16 18 18 17 14 13 14 13 13 11 10 10 9 8 10 8 5 6 8 7 5 6 9 8 3 4 6 5 5 5 2 5 7 6 5 6 7 8 10 10 12 14 12 10 7 7
20 20 21 21 21 22 22 23 23 24 24 24 24 24 23 23 23 23 24 24 25 26 25 22 20 18 17 17 18 15 15 17 21 29 29 24 26 25 21 18 18 17 17 17 17 20 19 15 15 13 12 12 10 9 9 9 10 9 6 6 9 7 4 6 10 11 7 5 7 6 5 4 3 5 7 5 4 6 8 7 8 11 13 14 14 14 12 9
21 21 20 21 21 21 22 23 24 24 24 24 24 24 24 24 23 23 23 23 24 25 26 24 21 20 18 17 17 15 13 15 20 25 23 23 26 24 22 20 19 21 21 17 14 16 19 18 16 14 13 11 10 10 9 10 9 6 7 9 7 5 5 8 12 12 10 8 6 6 6 5 5 7 7 5 5 6 8 8 7 8 10 11 12 13 14 13
21 21 21 21 21 20 21 22 24 25 24 24 24 25 24 24 24 23 23 23 23 24 25 24 22 21 19 16 16 16 11 8 10 12 14 16 17 18 20 20 21 24 23 19 16 14 17 19 15 14 13 10 9 9 10 13 10 5 9 13 6 3 6 9 13 14 13 10 6 6 6 6 7 7 9 7 7 4 3 5 5 5 5 7 10 11 13 14
20 21 21 21 21 21 21 21 23 24 25 24 24 24 24 24 23 23 23 23 22 23 24 24 24 21 19 17 16 18 15 5 1 3 3 3 6 10 13 17 22 24 23 22 19 16 16 16 15 15 13 11 11 11 11 13 12 8 9 14 9 6 8 5 9 15 14 11 9 8 6 6 8 7 9 11 10 4 2 3 3 4 4 4 7 10 12 13
20 20 20 21 21 22 22 21 21 23 25 24 23 23 24 24 23 22 23 23 22 22 22 23 24 21 20 18 17 21 24 17 7 2 1 3 4 5 4 12 20 24 25 25 23 21 17 16 17 16 13 10 12 14 11 12 14 11 8 11 11 10 12 7 5 12 14 12 10 9 7 8 9 8 8 12 14 10 7 7 6 7 7 6 7 9 11 11
20 20 20 20 21 22 22 21 21 22 24 24 23 22 23 23 23 22 23 23 22 22 22 22 23 22 20 19 19 22 28 29 21 16 10 7 9 8 6 4 14 24 28 27 26 25 21 19 19 16 13 10 10 13 13 11 12 13 11 9 8 8 12 12 8 9 11 11 9 8 10 11 10 7 6 12 14 14 13 10 9 10 10 11 9 8 11 11
21 21 20 20 21 22 22 21 21 21 22 23 23 23 23 23 22 22 21 22 22 21 21 22 22 22 21 21 21 19 24 29 28 28 23 14 13 11 6 4 5 18 28 29 28 28 22 20 21 16 10 9 11 12 15 13 9 13 15 10 8 7 8 10 12 13 10 9 8 8 11 11 11 8 8 15 17 15 15 13 12 12 11 12 11 9 11 11
21 21 20 20 20 21 21 21 21 21 21 21 22 22 22 23 22 21 21 21 21 21 21 21 21 23 22 22 20 15 18 21 22 27 28 22 16 10 5 2 1 9 23 29 29 30 25 18 20 18 9 7 10 10 14 14 7 12 19 15 11 9 6 7 9 12 10 8 8 10 12 9 11 9 8 13 17 18 19 17 15 14 13 13 13 12 12 11
21 20 20 20 20 21 21 21 21 21 21 20 21 21 21 22 22 21 21 21 21 21 20 21 21 22 23 23 21 16 13 13 15 21 24 25 23 16 8 4 2 5 15 25 30 31 26 17 17 18 9 5 9 6 9 12 5 9 14 12 13 12 9 9 8 9 8 7 9 10 13 9 9 8 11 12 12 15 18 20 20 19 17 15 14 14 14 14
20 20 20 20 20 20 21 21 21 21 21 20 19 20 20 21 22 22 21 21 21 20 20 20 20 20 21 23 27 27 18 12 10 12 18 25 27 24 17 10 5 4 8 17 26 31 28 19 18 19 9 5 9 4 6 11 5 6 8 8 12 12 13 15 14 12 9 7 7 7 10 13 10 11 17 16 14 16 16 18 20 21 21 19 18 17 17 17
19 18 18 19 20 20 20 21 20 20 20 20 19 19 20 20 21 22 22 20 20 20 20 19 19 21 19 21 30 32 25 21 17 11 12 18 25 27 25 18 10 6 6 8 15 25 29 22 19 22 12 6 8 3 4 8 6 6 7 7 8 9 14 16 17 15 12 10 10 9 8 13 13 18 24 20 18 21 18 16 18 19 21 21 21 21 21 20
18 18 18 17 18 20 20 21 21 20 19 20 19 18 19 19 20 21 22 20 19 19 19 18 20 21 19 24 30 28 23 23 24 22 15 12 18 25 26 24 17 11 8 7 7 15 26 23 17 21 15 8 7 4 3 5 5 8 6 5 8 11 10 12 15 15 13 11 14 12 10 11 10 16 25 22 19 21 19 19 20 20 22 22 22 23 24 23
18 19 19 18 18 19 20 20 21 20 18 19 18 17 17 17 18 20 21 21 19 20 20 20 21 18 15 23 28 26 26 23 21 24 23 17 14 16 21 23 21 16 11 9 6 10 24 24 16 16 13 9 7 6 5 4 5 8 7 7 11 13 7 7 12 18 15 9 16 16 8 10 10 10 16 16 17 19 20 22 22 22 24 26 26 25 25 25
19 19 20 19 19 20 21 20 20 19 18 17 17 16 17 17 16 18 20 20 19 20 21 20 21 17 9 14 20 21 25 26 24 24 22 21 18 14 13 16 17 16 13 10 7 10 23 25 16 14 12 9 8 7 6 5 6 9 11 10 12 15 11 6 6 15 19 10 15 18 8 5 7 9 13 14 16 18 20 23 23 23 24 26 29 30 29 28
20 20 20 20 21 21 21 20 19 18 17 16 16 16 16 15 15 16 17 18 16 18 20 17 16 16 12 13 15 15 19 22 24 25 24 22 24 20 13 11 14 16 14 11 9 11 21 23 14 11 10 8 8 8 8 10 11 10 11 11 12 15 14 10 4 7 15 9 11 17 13 9 5 5 12 14 15 17 18 22 23 23 22 23 26 29 32 31
19 20 21 21 22 23 21 19 18 16 16 16 14 13 12 12 13 13 15 16 13 13 16 15 12 9 12 18 18 14 16 18 19 23 26 24 26 25 17 13 14 16 14 10 10 13 17 17 11 8 7 9 10 10 11 12 12 12 12 12 12 13 14 14 6 5 11 8 9 14 15 16 12 10 12 12 13 15 17 21 23 23 21 18 19 24 29 31
20 20 22 21 22 22 20 18 17 15 15 14 11 9 9 9 10 11 13 14 11 8 7 12 16 10 2 8 17 21 16 13 15 19 24 25 26 24 18 14 13 17 14 8 10 15 14 10 9 10 10 12 14 16 16 9 6 12 14 11 11 10 11 14 8 6 12 10 11 15 14 15 16 17 18 17 16 14 16 20 21 21 20 18 19 24 28 30
21 21 21 22 22 21 20 17 15 13 14 13 10 8 7 6 6 7 11 14 16 15 8 8 19 21 7 9 3 18 20 14 13 17 22 24 26 23 17 15 15 15 12 8 11 15 15 9 9 13 15 18 19 19 19 9 3 9 11 9 10 10 9 11 9 6 8 10 12 15 15 16 17 18 20 22 20 17 17 16 18 20 20 21 22 26 30 31
22 22 22 23 22 21 20 16 13 12 13 12 10 9 7 7 5 4 6 10 16 21 20 15 15 21 21 11 4 8 16 19 18 18 20 23 26 21 14 15 14 10 12 12 10 12 14 10 12 18 19 19 19 18 19 15 8 7 9 9 10 11 10 8 8 7 6 7 10 14 16 18 18 17 19 21 20 19 19 17 18 22 23 23 22 25 29 31
23 22 22 23 23 22 19 15 12 11 11 11 10 11 10 10 10 7 4 5 11 17 23 24 21 20 21 19 16 11 9 13 20 22 20 22 24 19 12 13 12 9 13 14 9 9 11 12 16 21 18 16 16 17 19 19 14 8 7 9 9 10 8 5 6 6 5 6 9 11 15 17 18 18 18 19 20 20 21 20 20 22 25 25 23 24 30 33
22 22 22 23 23 22 20 15 11 11 11 10 10 12 12 12 12 11 7 4 7 12 19 23 27 30 26 18 17 17 11 7 12 21 25 23 22 21 15 11 13 14 13 13 11 10 10 14 19 18 14 14 14 14 16 16 15 11 9 9 9 10 10 6 6 7 6 6 5 5 10 12 14 16 17 21 25 22 23 25 25 24 26 28 26 25 31 35
21 22 22 23 23 22 20 15 11 10 10 10 10 11 12 12 11 11 8 4 5 8 15 20 24 30 32 24 18 16 15 11 8 15 25 25 21 20 16 11 12 14 13 14 16 14 11 12 14 15 14 15 13 11 14 13 12 15 15 13 10 10 12 8 5 7 6 7 4 3 9 11 13 16 15 17 21 22 24 26 27 27 27 29 29 27 30 32
21 21 21 21 22 22 19 15 12 10 9 11 12 11 12 12 11 9 5 3 4 5 9 15 18 25 31 29 23 16 11 13 14 16 22 27 23 16 13 14 11 12 16 18 16 14 14 10 12 15 15 15 14 12 16 15 12 15 17 18 16 13 12 8 6 8 6 8 8 7 9 10 11 17 17 13 14 19 22 23 26 27 25 26 28 30 33 34
21 20 20 20 20 21 19 13 11 10 9 13 12 9 11 12 11 9 5 1 4 4 5 10 12 14 19 23 25 18 7 12 19 20 20 25 26 17 10 10 6 9 16 16 12 8 10 11 13 15 15 16 16 14 17 17 13 13 13 17 20 15 13 11 10 9 6 6 5 8 10 10 8 13 16 14 15 20 20 19 24 27 25 24 26 29 33 36
21 21 21 20 19 21 18 13 13 12 10 11 10 9 11 11 10 7 4 2 4 5 6 9 10 7 10 17 25 19 5 9 16 20 23 23 26 22 12 8 6 8 8 7 8 5 8 15 14 14 15 16 16 14 16 18 14 9 5 12 17 17 17 14 11 10 8 4 1 6 10 11 10 11 13 16 18 19 20 19 19 22 24 23 22 24 28 34
20 21 21 21 19 20 19 16 15 15 13 11 8 7 10 11 9 4 2 2 1 4 3 5 9 7 6 15 28 22 7 9 11 17 27 25 24 21 12 9 10 10 10 7 8 9 12 17 17 17 16 12 13 14 15 18 14 6 6 9 14 16 16 12 11 11 9 7 6 8 9 9 13 11 10 16 19 19 19 21 18 17 20 20 19 21 24 30
21 21 21 22 22 19 17 15 15 15 14 11 8 8 9 9 8 4 2 3 2 3 1 3 7 6 8 15 25 24 13 10 7 12 24 26 25 18 8 12 13 9 13 11 9 9 8 10 14 17 13 9 12 13 14 18 14 5 8 6 7 11 13 12 11 9 7 9 11 12 12 10 12 9 8 13 17 17 17 17 18 19 20 17 18 22 25 29
21 22 21 22 23 20 17 16 15 13 12 13 12 11 10 7 5 2 3 2 1 1 2 4 6 7 10 12 15 19 16 10 5 10 19 21 25 20 9 13 14 7 9 8 10 10 2 1 6 11 12 11 13 14 17 19 12 9 8 4 4 6 9 9 9 7 7 9 12 17 18 13 12 10 9 11 12 12 11 11 14 17 18 15 17 24 28 29
22 23 23 23 23 20 18 17 14 10 10 13 12 11 12 6 2 3 3 1 2 2 3 3 6 7 11 12 10 13 15 11 7 10 12 12 17 17 7 8 8 5 6 5 8 12 7 2 3 7 13 14 12 13 14 15 12 10 7 6 5 4 5 6 7 7 9 10 13 19 21 17 15 11 5 6 9 13 13 12 13 15 16 18 23 30 31 31
23 23 24 24 22 19 17 17 13 9 10 12 11 15 11 4 2 5 3 3 1 3 2 3 6 7 13 13 9 12 13 10 8 9 9 8 9 10 8 8 7 5 7 5 7 11 10 10 5 3 9 15 13 10 8 8 11 11 9 9 8 6 5 7 8 7 9 11 9 14 18 16 17 16 9 6 4 8 10 9 12 16 18 21 29 32 31 31
26 24 25 23 20 17 14 13 11 10 9 9 14 12 5 3 5 6 4 2 0 1 1 1 6 8 12 12 9 12 13 9 10 10 9 10 9 9 12 13 12 8 4 5 9 9 6 10 10 3 3 13 16 11 7 6 11 14 11 10 10 9 8 9 9 7 10 11 6 11 16 11 12 15 16 18 14 7 7 7 10 14 17 21 27 29 30 30
26 24 25 20 16 13 9 8 9 9 7 11 15 6 1 4 4 4 7 6 2 1 1 1 3 7 8 9 8 11 11 9 11 10 9 10 9 9 11 13 15 10 3 5 8 8 8 7 9 9 6 12 17 15 11 9 11 14 12 10 10 8 8 9 9 10 11 8 3 10 12 8 9 5 2 11 18 20 22 19 15 16 17 20 24 25 27 28
23 20 19 14 9 5 4 7 9 7 8 16 11 3 6 7 3 3 5 6 2 1 1 1 1 3 4 6 6 10 10 8 11 11 9 11 10 10 10 10 14 12 6 7 5 6 11 7 10 16 13 14 17 16 14 12 10 11 10 10 11 10 9 8 5 6 7 6 4 7 7 6 9 7 2 2 7 15 24 23 21 22 21 23 25 26 28 28
22 16 13 9 7 4 1 6 9 8 13 16 6 5 8 4 2 3 1 3 3 2 1 1 2 2 4 3 5 11 10 6 10 11 8 11 11 12 11 8 12 14 10 9 5 4 9 6 10 16 15 15 18 17 17 15 9 6 9 10 6 5 7 8 5 1 3 9 8 9 10 8 8 12 11 11 5 9 14 14 15 18 19 23 25 27 31 34
22 18 12 8 7 4 2 7 9 12 17 14 6 6 5 2 0 2 0 1 0 2 3 3 4 3 4 4 3 8 7 4 9 9 7 9 10 11 13 10 12 15 14 13 8 3 6 5 4 12 16 17 19 17 15 15 12 7 9 10 4 2 1 4 6 5 7 10 8 11 15 13 9 8 8 14 13 11 11 10 10 12 14 17 20 26 31 34
22 17 9 6 9 8 2 8 11 15 16 9 7 7 2 1 1 1 1 1 2 2 5 5 4 3 3 4 3 5 7 5 7 7 6 7 6 11 15 13 12 16 20 19 11 3 5 6 2 9 15 12 10 11 9 11 13 5 4 10 7 2 4 6 7 9 11 11 9 13 16 13 12 8 4 10 14 13 12 11 11 10 10 13 18 25 29 29
17 11 5 5 12 10 2 8 13 17 12 5 7 7 1 0 3 3 3 4 3 3 6 5 3 2 2 3 2 4 7 6 6 5 6 5 5 12 17 13 12 17 21 19 9 3 5 8 5 4 7 7 7 9 9 10 9 3 2 8 6 3 6 9 8 6 10 11 10 11 13 11 11 12 11 11 10 8 10 12 12 11 10 14 20 25 25 24
13 7 3 6 12 8 4 10 14 15 7 3 5 3 1 1 3 5 7 5 2 3 5 4 3 3 3 2 3 2 5 6 6 5 4 5 4 8 14 14 11 14 19 17 9 4 2 7 8 1 2 4 6 9 14 16 13 7 8 11 8 5 4 6 8 7 8 10 10 10 11 9 6 8 13 15 12 9 9 9 10 12 13 16 21 24 22 19
12 4 4 6 11 4 8 12 10 7 3 4 5 2 1 1 2 4 8 8 5 4 3 3 4 5 3 2 3 3 4 5 6 6 4 4 6 5 7 11 12 12 15 13 9 7 3 3 7 4 3 6 7 9 12 14 15 13 11 12 12 10 8 7 10 9 7 8 10 10 11 8 3 3 8 12 13 13 12 12 12 14 16 20 23 23 19 19
8 4 6 7 8 1 9 10 5 3 4 5 4 3 2 1 1 4 6 6 5 3 2 3 5 5 3 3 3 3 4 4 5 6 4 5 9 7 3 5 8 8 10 10 10 11 7 3 5 4 5 8 6 3 2 5 9 13 12 12 13 12 11 10 10 9 8 10 9 9 12 7 1 2 4 6 6 7 11 13 11 10 15 20 22 21 19 19
6 8 8 5 3 1 7 6 3 3 5 3 2 4 5 2 1 2 2 2 3 3 3 3 4 6 5 3 3 3 4 5 5 7 7 6 8 11 10 15 14 7 5 8 10 10 6 3 4 3 2 3 3 2 2 2 5 10 10 10 12 13 13 12 10 8 8 9 9 9 11 9 2 1 2 1 0 2 5 9 9 9 15 21 23 21 19 17
9 11 8 4 1 4 6 3 3 5 5 2 2 5 6 4 4 5 3 3 3 2 3 4 4 6 6 3 3 4 4 4 5 6 7 4 4 10 19 25 18 6 5 7 6 7 7 5 6 5 3 3 4 4 3 2 4 7 10 13 16 17 18 15 9 7 7 8 10 10 9 8 5 3 3 2 3 3 5 9 11 12 15 19 20 17 14 12
8 8 6 4 1 6 7 3 3 6 5 2 3 5 7 4 6 11 9 7 7 4 3 5 4 5 5 3 2 4 5 5 5 4 4 4 3 4 15 23 18 10 11 15 11 5 6 8 8 7 8 8 7 6 6 6 7 8 11 16 19 21 22 17 10 10 10 9 11 12 9 8 8 7 7 7 6 7 9 10 12 14 15 16 16 14 13 13
4 3 3 4 1 6 8 6 5 6 5 4 4 4 7 6 5 9 10 8 10 9 6 6 5 5 6 6 4 4 6 7 6 3 4 6 3 2 9 15 16 17 20 23 19 6 2 7 11 12 14 12 10 9 7 6 8 10 14 18 19 21 23 18 13 13 12 10 12 13 12 13 15 15 14 11 10 12 13 10 11 15 19 20 20 17 17 18
2 2 2 3 2 3 6 6 4 4 4 4 3 2 6 7 4 4 8 7 8 8 6 7 8 8 9 9 7 6 5 6 6 5 6 8 6 4 5 7 13 21 21 17 15 7 0 6 11 15 19 18 16 14 10 8 10 13 16 20 20 20 21 20 17 15 13 13 13 13 16 19 20 20 20 16 14 14 15 12 11 15 21 24 23 20 19 18
3 2 3 3 2 2 2 3 5 6 5 4 3 2 6 9 7 5 6 5 3 5 4 5 10 15 15 12 8 6 4 5 7 8 7 8 7 5 5 4 7 15 13 6 6 6 2 5 9 13 18 21 21 18 12 10 11 13 14 18 19 19 20 20 19 18 19 17 13 14 20 22 19 21 23 19 16 16 17 13 10 14 20 22 19 17 17 19
4 3 4 5 4 5 7 9 10 9 8 8 5 5 8 11 12 10 7 3 3 6 8 8 10 13 15 15 11 8 7 6 8 9 8 8 8 5 5 5 5 8 8 4 3 4 3 5 8 11 15 19 21 19 16 13 12 15 17 19 18 18 20 20 19 20 23 22 17 16 20 20 17 19 22 21 19 19 16 11 11 16 20 20 19 18 20 23
6 4 6 8 7 9 11 10 8 7 7 8 6 6 8 11 14 12 7 6 7 4 7 12 14 10 10 12 11 12 13 13 13 12 8 6 7 5 4 5 4 4 6 5 3 4 5 7 9 9 10 14 18 20 20 17 14 15 18 19 19 19 19 19 18 18 20 19 18 19 20 17 14 17 21 24 22 17 15 14 15 16 19 21 23 24 27 29
10 6 6 7 6 7 8 6 5 5 5 6 6 5 7 11 14 12 8 11 14 9 7 12 13 9 9 12 14 18 20 18 17 17 11 7 8 6 5 6 5 4 5 5 4 4 5 6 7 7 7 10 13 17 20 19 17 19 19 18 18 17 15 15 15 16 17 16 18 20 18 14 14 17 19 23 23 16 13 17 18 18 20 23 24 26 28 28
15 11 6 5 4 5 6 6 6 6 4 5 7 6 7 10 10 9 7 9 17 20 17 15 12 8 9 14 17 18 16 15 19 23 19 16 15 12 12 12 9 7 6 5 4 4 5 4 6 7 7 9 11 15 18 18 16 15 14 14 15 15 14 15 16 18 21 19 16 16 15 15 18 19 18 20 21 18 17 21 22 20 20 21 24 28 27 26
Wind_Direction
302 299 297 293 290 288 285 283 280 277 274 272 269 265 263 263 262 258 255 253 253 254 254 257 260 257 253 253 261 268 272 276 278 274 266 263 263 256 250 242 238 235 227 217 204 207 213 218 226 225 225 223 227 229 225 221 204 190 206 222 224 221 205 184 189 191 228 190 152 144 184 190 156 176 196 206 206 213 219 214 220 224 222 223 212 207 205 202
304 301 298 295 292 290 287 283 280 277 274 271 269 265 262 261 261 259 255 253 252 252 252 254 257 257 255 251 254 265 272 276 277 270 266 269 267 258 251 238 232 235 227 219 212 210 211 214 219 218 215 215 219 220 217 210 200 204 217 220 225 226 189 177 195 194 204 193 158 142 177 200 169 161 184 198 190 196 214 215 218 229 230 231 228 224 223 214
304 302 300 298 295 292 289 285 280 278 275 273 270 266 262 259 258 257 255 253 251 251 251 254 255 254 257 252 248 256 269 278 277 272 272 272 266 260 254 241 232 235 230 225 224 220 216 212 213 210 206 211 211 206 210 204 202 213 216 222 226 217 174 183 203 201 203 188 166 168 174 199 208 171 183 201 181 190 220 218 210 225 232 235 235 229 228 224
305 302 300 298 298 296 293 287 282 278 274 273 271 268 264 259 257 256 255 253 251 251 250 252 253 251 255 254 247 246 260 279 279 278 276 268 265 263 255 243 231 230 232 227 223 220 213 208 208 203 202 209 199 196 208 200 197 201 204 228 228 193 200 203 204 207 205 203 191 171 175 203 199 185 191 198 193 202 223 227 223 229 235 241 241 235 231 228
306 304 301 298 299 299 296 291 284 278 273 271 269 268 265 259 256 254 254 253 250 250 249 250 251 249 253 255 248 237 240 281 280 271 268 261 263 262 251 241 228 223 226 223 217 213 205 201 201 195 203 207 184 195 213 200 197 198 209 232 241 175 223 213 201 212 207 206 207 179 193 200 181 193 203 211 229 217 182 206 228 232 235 245 242 238 234 231
306 304 301 299 299 299 298 295 288 280 273 269 267 265 264 261 256 253 253 252 250 248 248 247 247 247 248 250 249 231 213 219 208 173 241 265 269 262 246 231 223 218 217 215 211 209 202 195 195 193 201 207 192 198 203 193 199 217 218 228 238 216 229 220 199 220 214 200 203 201 215 192 185 216 211 216 238 244 213 220 218 212 220 251 247 239 235 233
307 305 302 300 300 299 298 297 294 286 275 269 266 264 262 261 258 255 252 251 250 248 246 246 244 245 245 244 251 236 215 212 218 194 10 21 352 330 282 228 216 209 207 209 206 206 201 192 200 199 199 207 200 202 194 183 199 221 224 214 223 222 226 235 217 227 219 208 206 204 223 208 204 224 208 218 236 242 255 254 234 223 233 263 267 246 236 237
307 304 302 301 301 299 299 299 296 291 279 269 266 265 262 260 258 256 253 249 249 247 245 245 242 242 245 245 252 242 220 218 225 237 261 294 307 327 340 269 219 206 200 204 206 206 200 195 203 200 205 210 192 197 186 178 200 218 225 207 209 220 224 233 238 241 230 223 219 201 220 222 214 225 218 226 238 243 248 251 243 235 239 251 261 250 231 232
307 303 301 302 302 300 299 298 297 293 283 271 265 263 262 260 257 255 254 250 248 247 244 243 242 241 243 247 255 251 235 234 231 233 244 263 282 294 309 339 229 208 200 199 201 204 200 197 202 199 220 217 190 197 185 189 211 208 217 217 211 218 219 226 232 240 241 232 224 209 224 223 209 223 239 237 241 247 247 246 242 237 239 243 247 243 224 223
308 304 301 301 301 301 299 298 297 292 285 275 266 263 261 259 256 253 253 250 247 246 243 241 241 240 241 245 252 257 251 249 239 233 239 249 260 270 271 291 249 213 207 202 197 199 199 198 201 202 231 224 198 203 186 200 210 190 211 223 225 225 213 214 223 230 237 237 223 224 240 221 190 212 234 229 233 241 245 244 238 235 239 239 239 236 222 220
310 307 303 301 301 302 301 299 296 292 286 278 269 264 261 257 255 253 251 248 247 245 243 241 240 241 245 247 247 249 249 244 238 234 235 242 247 248 246 242 222 207 213 210 203 198 195 197 199 201 223 222 201 204 195 210 201 175 202 221 232 239 232 221 224 220 216 235 222 227 258 234 170 202 231 218 218 232 239 242 239 238 238 237 237 237 233 230
311 308 306 304 303 303 304 301 298 293 287 279 271 263 259 256 253 252 249 245 244 243 242 240 240 240 246 253 248 243 239 228 226 225 226 236 241 242 240 233 217 207 216 220 214 204 193 189 195 200 209 204 189 188 211 208 189 166 186 218 227 236 240 221 220 219 202 218 201 196 260 246 200 211 230 223 221 233 239 241 241 240 239 238 238 238 238 239
311 309 308 308 308 307 308 306 302 296 287 281 273 263 259 256 253 250 248 244 241 241 240 236 241 241 242 252 250 246 242 236 232 222 220 236 239 238 238 233 226 225 231 235 227 212 198 186 191 203 210 210 187 173 201 178 163 178 190 232 223 233 245 214 205 210 206 211 179 170 242 243 222 221 229 227 225 234 238 238 238 238 238 236 236 237 238 241
313 312 311 312 313 310 309 309 306 299 289 282 273 264 259 256 254 250 247 246 241 239 235 231 238 238 241 250 248 245 243 241 244 239 233 242 242 238 236 234 230 223 228 234 230 213 201 190 193 207 211 214 195 179 178 146 178 199 190 229 222 235 240 191 183 185 197 209 182 191 244 246 231 218 225 227 220 227 233 235 236 236 239 238 236 237 237 239
314 315 316 318 317 313 310 307 306 302 292 283 273 265 260 255 254 250 246 245 239 235 232 231 235 231 242 254 251 248 242 242 246 239 234 237 244 241 234 234 232 221 220 222 217 202 196 193 201 213 207 200 192 185 185 166 197 205 202 216 217 229 228 176 180 181 191 198 182 200 241 243 240 215 215 221 213 219 231 237 237 235 239 241 241 241 241 241
316 316 320 323 321 316 310 305 304 301 293 284 275 265 259 255 253 247 245 244 236 232 231 233 235 228 238 257 250 246 240 239 241 236 232 228 232 245 235 229 227 218 214 211 207 190 188 194 211 219 205 195 195 194 196 202 207 206 213 220 211 218 225 210 187 191 200 191 185 207 230 230 231 217 217 224 214 212 226 237 238 236 237 240 243 244 244 244
322 320 322 323 324 319 311 303 300 299 293 281 270 262 258 254 254 251 246 245 236 228 231 234 233 231 241 253 244 233 227 230 234 233 231 222 223 237 236 216 210 204 198 192 192 182 183 193 210 216 207 205 204 196 201 214 214 208 212 224 218 216 222 215 181 197 209 207 198 210 230 236 221 206 216 226 220 208 220 235 238 238 238 238 241 245 246 246
329 327 324 324 326 322 314 305 298 297 292 279 270 269 268 259 256 257 249 246 238 231 238 236 226 228 242 246 240 228 222 224 227 229 229 221 220 229 230 218 205 188 175 173 180 176 179 192 205 211 209 208 206 198 205 214 214 207 205 216 220 216 221 220 210 179 192 215 219 208 224 234 236 239 227 225 222 212 218 233 239 241 240 238 239 244 247 247
335 335 331 328 328 324 317 307 299 295 289 284 280 274 273 262 251 251 244 240 228 213 232 225 209 202 259 269 241 231 227 216 214 221 220 217 218 220 219 214 197 179 169 169 181 175 174 187 201 209 211 206 205 205 208 213 214 212 207 210 217 217 223 224 217 177 181 202 217 214 223 228 230 240 238 232 226 217 219 229 241 246 245 245 245 248 250 251
336 340 337 333 331 327 320 310 301 292 285 284 276 258 254 243 238 246 233 229 226 216 222 226 212 217 254 3 279 221 222 216 209 212 210 210 212 209 205 193 180 179 183 183 180 173 174 187 201 208 211 207 206 210 213 218 228 216 212 210 216 221 226 219 205 177 187 208 218 220 229 229 226 233 239 239 235 229 222 221 235 245 247 247 247 249 252 254
336 341 342 340 337 330 322 313 301 287 281 275 258 243 233 213 213 237 212 226 237 228 232 241 229 230 243 274 307 197 202 210 215 217 211 206 204 201 194 183 176 185 198 188 169 168 183 201 210 210 213 212 210 212 215 220 226 219 214 213 214 220 225 213 195 172 177 221 231 226 233 237 233 234 239 241 240 239 233 223 227 239 245 245 244 247 250 253
337 340 343 343 340 332 325 315 299 286 278 267 246 234 234 228 231 245 239 243 251 238 234 237 237 242 242 248 258 243 205 202 207 211 209 201 199 196 188 191 194 194 196 187 165 173 195 213 216 211 212 214 213 210 211 218 222 218 211 215 219 215 214 207 191 174 165 223 245 236 241 247 242 239 241 241 243 244 243 238 232 235 243 245 243 245 250 253
336 338 341 343 342 334 326 318 304 286 275 265 248 236 242 247 243 248 258 267 272 251 236 232 233 237 240 240 242 241 244 237 200 199 202 196 192 194 191 195 203 201 195 185 182 185 198 217 218 213 211 214 214 209 210 216 220 224 217 215 221 207 205 218 200 181 184 226 254 254 253 258 249 241 238 239 244 248 248 245 242 237 240 246 247 246 250 253
336 337 338 341 342 336 330 325 309 285 276 271 260 250 251 254 248 248 247 252 283 255 238 237 234 235 236 234 233 230 235 244 224 201 198 189 183 191 198 199 201 206 201 191 195 201 212 218 205 201 207 212 213 209 211 212 215 225 222 219 224 204 206 222 182 170 202 234 243 268 272 264 246 241 237 234 241 246 244 244 245 239 235 243 247 247 248 250
335 334 334 339 342 338 332 325 310 294 281 268 261 254 251 250 246 243 230 246 272 249 239 236 234 239 235 230 229 224 225 234 231 219 201 191 187 184 196 202 200 208 203 197 202 212 222 202 166 189 204 202 206 208 210 212 214 225 224 222 225 213 206 205 162 167 205 234 220 214 256 264 240 235 234 227 232 240 239 237 240 238 231 231 237 242 246 248
331 329 331 335 339 339 333 322 312 306 281 267 266 253 243 241 239 229 193 255 261 196 195 208 214 234 227 217 211 203 225 240 229 225 212 203 200 188 188 195 194 217 204 198 204 217 225 198 173 196 199 192 204 211 208 209 217 229 220 214 220 220 213 203 186 191 212 236 211 193 230 267 256 233 226 215 224 237 237 232 233 236 234 226 227 235 241 245
327 326 327 329 333 336 332 321 308 300 281 278 282 251 236 236 237 226 179 262 251 160 147 184 194 206 208 202 188 177 213 221 212 222 215 207 203 198 205 189 177 220 206 193 209 198 200 199 193 197 192 191 204 211 206 202 215 232 187 189 208 217 220 212 204 215 226 244 236 192 225 265 267 245 226 209 215 230 237 238 234 231 233 231 228 231 236 243
324 324 324 325 326 325 322 312 295 287 278 284 292 247 232 229 220 188 150 270 267 132 119 179 191 191 188 183 175 178 198 165 175 217 213 208 200 197 215 205 192 206 189 186 211 196 191 199 197 192 194 200 204 210 203 198 216 222 126 170 202 210 216 214 213 227 233 237 240 211 211 253 265 252 222 208 216 225 229 237 239 231 231 231 227 229 235 242
319 322 323 323 320 313 312 301 278 275 278 277 266 227 215 210 190 144 195 250 45 107 144 177 192 190 166 167 180 194 201 167 171 201 198 201 198 194 219 213 208 212 197 202 223 214 201 205 203 196 198 203 200 206 198 198 214 184 127 158 195 202 209 211 218 227 226 231 234 219 205 232 267 257 200 201 219 224 225 230 237 238 232 223 224 234 240 244
314 321 322 320 315 307 302 292 272 272 275 265 252 212 177 171 173 159 220 224 48 145 137 145 187 188 164 163 190 204 203 196 174 161 178 192 196 198 218 214 213 224 210 216 238 242 270 76 196 200 205 203 198 200 195 197 190 135 126 134 138 183 204 212 222 223 227 235 230 223 214 219 260 263 210 210 218 207 213 222 222 233 233 219 226 239 244 248
311 316 318 316 313 306 295 287 282 276 257 258 251 183 150 136 167 218 213 78 36 175 145 173 188 173 171 175 191 202 208 210 168 150 177 190 194 197 203 208 204 214 214 208 235 245 248 210 166 195 207 200 199 203 197 191 172 147 159 160 145 173 194 210 219 215 228 238 227 221 215 214 240 255 208 210 211 187 200 214 203 215 226 224 230 237 241 246
308 312 318 314 310 302 285 278 282 268 252 252 218 171 154 137 193 219 202 58 35 172 155 212 189 170 184 190 193 194 204 210 183 177 188 185 196 198 200 202 177 191 218 192 209 227 229 222 198 174 203 196 198 203 192 177 174 185 189 169 175 191 191 207 212 211 223 237 235 208 204 213 237 250 247 243 214 166 187 205 198 208 217 222 229 234 237 240
308 313 321 317 311 304 283 270 259 248 260 231 187 171 155 168 200 217 202 170 262 170 34 250 196 190 188 191 200 195 199 204 188 192 197 189 201 208 216 217 196 201 224 186 207 213 214 219 201 178 201 195 199 198 189 177 181 196 191 177 191 193 199 213 211 216 221 236 244 182 187 214 242 251 253 245 236 212 210 207 196 209 215 221 228 232 234 237
316 320 323 318 314 303 275 244 223 237 245 185 165 145 125 196 194 175 195 219 280 358 346 357 193 204 201 201 204 186 190 205 190 190 198 192 206 215 219 223 211 213 219 198 216 207 209 220 186 182 183 185 200 206 195 176 181 200 196 192 205 195 206 217 210 220 222 232 221 168 183 213 223 233 263 235 231 229 234 232 220 221 220 226 234 235 237 239
327 330 328 326 337 324 253 209 201 226 200 169 159 160 194 210 211 147 197 221 238 322 279 330 173 207 227 227 215 192 196 211 192 191 202 197 207 214 211 218 213 210 205 207 218 201 219 229 171 187 193 178 195 207 195 182 189 205 200 204 214 205 212 227 224 223 221 234 211 186 212 229 238 269 335 203 207 211 228 233 226 230 227 228 235 237 240 242
335 344 345 349 10 19 237 203 200 204 182 168 169 218 208 231 206 154 195 200 191 173 139 265 232 231 251 234 216 209 211 220 194 193 205 201 208 216 213 212 205 205 207 206 212 200 222 226 163 182 197 189 195 198 190 189 189 193 202 208 212 211 224 235 244 133 193 234 224 210 237 245 265 278 252 232 192 168 214 226 219 227 224 222 231 235 239 244
340 344 353 13 17 7 202 198 199 192 182 179 203 219 215 304 206 157 153 133 164 178 184 244 219 197 231 220 218 210 203 220 203 194 197 198 209 216 216 218 200 201 212 216 227 219 212 243 165 178 199 201 199 195 193 201 201 193 203 195 160 38 265 229 237 220 210 236 230 213 230 233 236 254 231 224 216 186 198 213 214 219 210 213 226 233 240 245
338 338 353 27 5 349 223 197 195 188 183 189 228 230 209 322 283 351 332 323 351 185 203 239 214 189 224 221 229 187 173 194 200 195 201 196 203 202 207 221 204 199 213 218 228 229 201 239 248 192 198 189 179 185 197 218 220 231 213 187 173 192 202 198 222 229 222 234 238 224 230 231 225 228 208 212 217 205 196 203 216 219 201 203 218 230 241 247
342 345 5 17 352 342 217 189 188 187 189 203 225 226 188 278 271 302 278 288 312 236 233 244 225 254 264 237 257 171 174 209 207 201 207 193 200 195 195 209 203 198 207 209 218 250 220 228 231 204 191 160 155 187 203 214 218 254 231 194 193 229 217 207 213 229 228 232 241 234 233 234 226 230 230 222 221 208 191 198 217 225 215 211 218 228 237 240
357 349 344 13 359 351 167 179 186 187 195 226 224 225 62 302 268 258 251 259 262 243 263 262 231 244 235 245 289 210 194 231 229 222 213 189 204 204 199 206 202 195 198 198 209 225 231 233 222 175 102 166 181 196 202 204 198 194 207 201 199 211 221 224 225 232 237 237 240 235 235 239 226 224 226 227 233 223 198 200 215 220 222 222 225 229 229 228
3 339 290 350 359 7 158 172 188 193 210 236 238 263 298 240 275 270 256 250 243 246 278 266 242 247 234 231 272 222 190 224 228 226 226 201 209 220 216 215 209 199 191 190 210 206 169 243 225 195 182 203 211 206 210 214 200 192 203 203 200 201 201 218 226 225 232 237 238 241 246 247 224 205 214 220 233 231 218 219 218 213 217 224 228 228 228 235
356 319 301 321 339 319 173 180 196 202 224 240 239 258 285 284 282 278 269 260 260 256 241 245 240 243 243 238 249 214 200 223 216 212 224 220 216 218 281 285 258 232 202 193 211 206 183 213 235 229 211 204 214 220 268 268 217 206 211 204 203 205 202 213 218 209 216 224 226 243 253 249 140 133 203 209 226 233 226 226 223 211 212 221 231 236 240 247
322 309 330 353 353 228 192 205 222 206 226 255 262 253 262 272 234 265 286 260 260 254 226 229 230 233 242 241 233 216 223 232 212 210 214 216 220 218 242 275 287 291 235 211 206 190 172 199 228 243 253 209 238 285 350 333 221 215 221 210 210 211 206 216 221 214 221 218 213 235 248 245 226 154 184 163 91 279 250 230 219 219 225 231 238 245 248 249
309 304 324 5 25 201 203 228 245 239 242 226 229 241 239 238 234 238 244 219 219 228 238 242 240 237 235 221 217 217 218 222 225 233 224 221 231 205 217 239 247 234 214 228 215 174 174 199 207 216 234 210 221 236 222 197 191 212 220 212 213 212 211 218 227 234 242 221 214 232 242 242 238 198 180 176 164 200 237 223 210 214 225 230 235 238 237 231
312 304 299 318 287 206 223 264 259 260 271 245 244 241 229 234 234 229 233 237 227 217 243 261 263 249 235 214 220 221 213 218 234 254 240 241 268 205 213 227 224 206 214 232 245 243 209 208 197 202 220 217 212 212 201 191 193 206 217 216 215 213 214 217 221 230 234 218 215 228 239 248 247 228 216 207 202 221 226 211 203 210 214 214 222 226 214 197
308 312 304 313 279 211 238 258 251 257 267 259 265 244 224 230 235 225 224 236 239 229 238 258 258 257 245 225 225 228 214 218 226 228 222 225 237 227 219 215 205 206 219 225 230 245 278 231 215 211 219 222 225 219 196 184 196 200 207 215 218 214 212 214 218 222 222 221 225 223 226 243 249 243 232 216 212 230 232 212 197 209 214 213 218 218 201 193
287 287 342 335 303 235 239 241 234 236 235 235 243 226 226 233 243 227 212 222 239 227 233 254 239 239 244 228 229 237 213 212 225 228 232 231 233 250 229 201 203 216 223 224 217 198 315 258 238 230 227 225 229 225 197 174 191 200 203 211 215 213 212 215 220 219 214 222 231 217 215 231 240 243 242 231 218 226 234 222 196 201 210 214 217 211 200 205
321 308 1 355 302 266 258 285 299 289 271 254 222 212 253 251 247 241 224 227 237 201 206 258 233 231 239 235 239 244 204 200 225 226 230 234 237 253 241 206 215 223 223 218 198 184 220 263 253 252 245 236 235 232 213 187 189 199 206 211 212 211 212 217 224 224 221 227 233 221 220 228 234 243 248 244 232 232 236 227 204 209 215 213 214 210 210 223
352 318 329 337 308 288 295 299 302 293 275 268 250 223 243 252 251 250 241 245 253 202 202 240 240 231 238 240 242 244 220 210 228 230 229 233 232 238 245 234 223 215 210 200 181 180 218 252 250 258 262 253 245 239 230 214 202 203 209 212 212 211 212 216 223 226 228 233 239 240 240 238 236 244 252 252 246 243 243 229 204 211 215 210 213 219 224 233
2 330 324 329 308 289 292 289 286 286 268 262 255 225 232 248 253 253 236 220 246 223 194 232 246 238 239 241 236 241 236 226 233 239 229 227 232 219 230 249 235 190 196 211 216 190 200 236 243 244 258 257 249 243 237 227 216 215 215 212 211 211 213 216 221 226 232 237 240 245 251 248 241 246 253 257 254 244 241 235 213 202 204 203 209 219 227 235
356 335 309 313 302 287 294 294 285 290 274 256 255 240 237 244 247 256 248 221 232 236 205 227 245 242 236 235 228 236 240 233 240 250 245 238 241 218 207 234 226 189 198 211 217 196 195 231 247 239 249 251 239 235 233 229 228 228 224 217 213 212 212 212 214 217 221 228 232 238 245 246 243 244 247 253 254 244 237 238 225 211 206 204 209 220 227 235
358 350 316 293 290 282 291 298 288 280 272 264 271 273 275 273 267 269 265 223 225 235 237 241 254 253 241 238 233 238 247 245 248 254 252 249 248 240 236 240 231 222 221 205 199 205 204 232 252 242 251 262 246 230 224 225 229 229 218 211 214 214 210 210 211 211 212 216 223 229 233 237 241 243 244 250 251 245 239 237 231 222 216 214 222 231 234 237
Height
1525 1524 1523 1522 1521 1521 1520 1520 1520 1519 1519 1519 1519 1519 1519 1520 1520 1521 1521 1522 1523 1523 1524 1524 1524 1525 1525 1525 1525 1524 1523 1522 1521 1520 1517 1517 1523 1524 1523 1525 1526 1526 1527 1529 1530 1531 1532 1533 1534 1535 1536 1537 1537 1536 1537 1537 1537 1538 1536 1537 1537 1534 1534 1532 1531 1532 1530 1529 1531 1532 1533 1533 1533 1535 1536 1536 1536 1537 1537 1537 1537 1537 1538 1538 1538 1539 1539 1539
1523 1522 1521 1520 1519 1519 1518 1518 1517 1517 1517 1517 1517 1517 1517 1517 1517 1518 1519 1520 1520 1521 1522 1522 1523 1522 1523 1523 1523 1523 1522 1521 1520 1515 1514 1517 1520 1520 1522 1524 1525 1525 1526 1528 1528 1529 1531 1532 1533 1534 1535 1535 1535 1535 1536 1536 1536 1535 1534 1535 1532 1528 1528 1528 1528 1529 1529 1530 1530 1532 1533 1533 1533 1533 1535 1535 1535 1536 1536 1536 1536 1537 1537 1537 1537 1538 1538 1538
1521 1520 1519 1518 1517 1517 1516 1515 1515 1515 1515 1514 1514 1514 1514 1515 1515 1515 1516 1517 1518 1519 1519 1520 1520 1521 1521 1522 1522 1522 1521 1520 1516 1511 1513 1516 1515 1516 1520 1522 1524 1524 1524 1526 1527 1528 1529 1530 1532 1532 1534 1534 1534 1534 1534 1534 1534 1533 1533 1533 1528 1524 1526 1527 1528 1528 1529 1529 1529 1531 1532 1532 1533 1533 1534 1533 1533 1534 1533 1533 1534 1535 1535 1535 1536 1536 1537 1538
1519 1518 1517 1516 1515 1514 1513 1513 1513 1512 1512 1512 1512 1512 1512 1512 1512 1513 1513 1514 1515 1516 1517 1518 1518 1519 1520 1520 1521 1521 1521 1520 1513 1509 1512 1512 1511 1514 1517 1519 1522 1522 1522 1524 1525 1526 1527 1529 1530 1531 1532 1531 1532 1533 1532 1532 1532 1531 1531 1529 1524 1524 1526 1527 1528 1528 1529 1529 1529 1531 1532 1532 1532 1532 1533 1532 1532 1532 1531 1531 1532 1533 1533 1534 1534 1535 1536 1536
1517 1516 1515 1514 1513 1512 1511 1510 1510 1510 1509 1509 1509 1509 1509 1510 1510 1511 1511 1512 1513 1514 1515 1516 1517 1518 1518 1518 1520 1519 1521 1520 1509 1507 1509 1508 1509 1511 1513 1516 1518 1518 1520 1523 1524 1525 1526 1527 1529 1530 1530 1529 1530 1531 1530 1530 1530 1530 1528 1526 1524 1525 1526 1525 1527 1528 1528 1529 1530 1530 1530 1530 1531 1531 1531 1531 1530 1528 1528 1530 1531 1531 1532 1533 1533 1534 1534 1535
1515 1514 1513 1512 1511 1510 1509 1508 1507 1507 1507 1507 1507 1507 1507 1507 1508 1508 1509 1509 1510 1511 1512 1514 1515 1516 1517 1517 1518 1517 1518 1515 1506 1506 1507 1506 1508 1508 1510 1512 1513 1515 1518 1520 1522 1524 1524 1526 1528 1528 1527 1526 1526 1527 1527 1528 1529 1528 1526 1525 1525 1526 1525 1525 1527 1527 1528 1529 1529 1529 1529 1529 1530 1530 1529 1530 1528 1527 1528 1529 1530 1530 1531 1531 1532 1532 1533 1533
1513 1512 1511 1510 1509 1508 1507 1506 1505 1504 1504 1504 1504 1504 1504 1505 1505 1506 1506 1507 1508 1509 1510 1511 1513 1514 1515 1515 1515 1514 1511 1508 1505 1506 1506 1506 1507 1507 1508 1509 1510 1513 1515 1517 1520 1521 1523 1525 1525 1525 1525 1524 1523 1524 1524 1526 1528 1527 1524 1523 1525 1525 1525 1525 1526 1526 1527 1528 1528 1528 1528 1528 1528 1528 1528 1528 1527 1527 1528 1528 1529 1530 1530 1530 1531 1531 1532 1532
1511 1510 1509 1508 1507 1506 1505 1503 1502 1502 1501 1501 1501 1501 1502 1502 1503 1503 1504 1505 1505 1507 1508 1509 1510 1512 1513 1513 1512 1510 1505 1503 1506 1507 1506 1506 1506 1507 1508 1508 1509 1510 1512 1515 1517 1519 1521 1522 1523 1524 1523 1521 1521 1522 1523 1525 1526 1525 1522 1522 1523 1524 1525 1525 1526 1526 1526 1527 1527 1528 1528 1527 1527 1527 1527 1526 1526 1527 1527 1527 1528 1528 1529 1529 1530 1530 1530 1531
1509 1508 1507 1506 1505 1504 1503 1501 1500 1499 1499 1499 1499 1499 1499 1500 1500 1501 1502 1502 1503 1504 1505 1507 1508 1510 1511 1510 1509 1505 1499 1501 1507 1507 1506 1506 1506 1507 1507 1508 1509 1509 1511 1512 1515 1517 1519 1520 1521 1522 1521 1520 1521 1520 1521 1523 1522 1521 1521 1521 1522 1523 1523 1524 1525 1525 1526 1526 1527 1527 1526 1526 1526 1527 1525 1523 1524 1525 1525 1526 1527 1527 1528 1528 1529 1529 1529 1530
1507 1506 1505 1503 1502 1502 1501 1499 1498 1497 1496 1496 1496 1496 1497 1497 1498 1498 1499 1500 1501 1502 1503 1504 1506 1507 1507 1507 1507 1501 1496 1501 1505 1505 1506 1506 1506 1507 1507 1508 1508 1509 1510 1510 1512 1514 1516 1518 1520 1522 1522 1520 1520 1519 1519 1520 1518 1518 1520 1520 1521 1522 1522 1523 1524 1524 1525 1525 1526 1526 1524 1524 1525 1526 1523 1521 1523 1523 1523 1525 1525 1526 1526 1527 1527 1528 1528 1529
1505 1504 1503 1501 1500 1500 1498 1497 1496 1495 1494 1493 1493 1494 1494 1495 1496 1496 1497 1498 1498 1500 1501 1502 1503 1504 1503 1504 1503 1498 1496 1501 1502 1503 1505 1505 1505 1506 1507 1507 1508 1509 1509 1510 1511 1512 1515 1518 1519 1521 1521 1519 1519 1519 1519 1518 1517 1518 1519 1520 1520 1520 1521 1521 1522 1523 1524 1524 1524 1525 1523 1522 1524 1524 1520 1519 1521 1521 1522 1522 1523 1524 1525 1525 1526 1526 1527 1527
1504 1503 1501 1500 1499 1498 1496 1495 1494 1493 1491 1491 1491 1491 1492 1492 1493 1494 1494 1495 1496 1498 1498 1500 1501 1500 1501 1500 1496 1494 1497 1500 1500 1501 1503 1503 1503 1505 1506 1507 1508 1509 1509 1510 1510 1511 1514 1516 1518 1519 1518 1517 1518 1519 1518 1517 1518 1519 1519 1520 1519 1519 1518 1517 1519 1521 1522 1522 1522 1526 1525 1520 1519 1519 1517 1518 1520 1520 1520 1521 1521 1522 1523 1524 1524 1524 1525 1525
1502 1501 1499 1498 1497 1496 1494 1493 1492 1490 1489 1489 1488 1489 1489 1490 1491 1491 1492 1493 1494 1495 1496 1498 1498 1498 1499 1495 1490 1492 1496 1498 1498 1499 1501 1502 1502 1502 1504 1506 1507 1508 1509 1509 1510 1511 1513 1515 1516 1517 1517 1517 1516 1518 1516 1517 1519 1518 1519 1519 1519 1520 1513 1510 1515 1518 1519 1520 1520 1526 1524 1514 1510 1512 1513 1516 1518 1518 1519 1519 1519 1520 1520 1521 1522 1522 1523 1523
1500 1499 1498 1496 1495 1494 1492 1491 1490 1488 1487 1487 1486 1486 1487 1487 1488 1489 1490 1491 1492 1493 1494 1495 1495 1496 1496 1490 1487 1491 1494 1495 1496 1497 1499 1500 1500 1501 1502 1504 1506 1507 1508 1509 1509 1510 1513 1515 1516 1516 1517 1517 1516 1516 1516 1518 1518 1517 1520 1520 1518 1518 1509 1505 1511 1514 1517 1518 1518 1524 1522 1510 1505 1506 1509 1512 1515 1516 1517 1517 1517 1518 1518 1518 1519 1520 1520 1521
1499 1498 1497 1494 1492 1491 1490 1489 1488 1486 1485 1484 1484 1484 1484 1485 1486 1487 1488 1488 1489 1490 1492 1492 1492 1493 1493 1487 1485 1489 1491 1492 1493 1496 1498 1499 1500 1500 1500 1502 1504 1506 1507 1508 1508 1509 1512 1515 1515 1515 1515 1516 1516 1517 1517 1518 1518 1517 1521 1520 1516 1514 1508 1506 1508 1509 1512 1515 1516 1521 1518 1509 1505 1505 1507 1510 1512 1514 1514 1514 1514 1515 1515 1516 1516 1517 1518 1519
1497 1497 1496 1493 1491 1489 1488 1487 1485 1484 1483 1483 1483 1482 1482 1483 1483 1484 1486 1487 1488 1488 1490 1491 1490 1492 1491 1485 1483 1486 1487 1488 1491 1494 1497 1498 1499 1499 1500 1501 1502 1504 1506 1507 1508 1508 1511 1513 1514 1513 1513 1515 1515 1515 1517 1520 1519 1516 1515 1512 1510 1510 1509 1507 1507 1506 1507 1511 1514 1515 1511 1507 1505 1504 1506 1508 1509 1511 1511 1510 1511 1512 1512 1513 1513 1514 1515 1516
1495 1494 1494 1492 1490 1487 1486 1485 1483 1482 1481 1481 1480 1480 1481 1481 1482 1483 1484 1485 1486 1486 1488 1488 1489 1491 1488 1482 1482 1482 1482 1485 1489 1492 1494 1496 1497 1498 1499 1500 1500 1503 1504 1506 1507 1508 1510 1512 1513 1513 1512 1512 1512 1513 1518 1519 1514 1510 1509 1507 1503 1505 1507 1506 1506 1507 1507 1508 1511 1511 1509 1505 1503 1503 1505 1506 1506 1508 1509 1508 1507 1508 1509 1509 1510 1511 1512 1513
1494 1492 1491 1489 1488 1486 1484 1483 1481 1480 1480 1479 1478 1479 1480 1481 1482 1482 1483 1484 1485 1485 1487 1487 1489 1491 1485 1479 1479 1480 1480 1484 1487 1490 1491 1493 1495 1496 1498 1499 1500 1502 1503 1505 1506 1507 1509 1510 1511 1511 1510 1511 1510 1510 1510 1506 1500 1501 1505 1506 1502 1501 1504 1503 1504 1506 1507 1508 1509 1510 1509 1505 1503 1502 1503 1504 1504 1505 1506 1505 1505 1505 1506 1507 1507 1508 1509 1510
1494 1491 1488 1487 1485 1484 1482 1481 1480 1479 1478 1477 1478 1479 1479 1480 1480 1481 1481 1482 1483 1484 1485 1484 1484 1484 1479 1475 1476 1478 1480 1483 1485 1487 1488 1490 1493 1495 1497 1498 1499 1500 1502 1503 1504 1505 1507 1509 1511 1510 1507 1504 1502 1500 1497 1494 1495 1498 1498 1501 1502 1502 1502 1501 1502 1504 1505 1509 1508 1506 1505 1504 1503 1500 1499 1501 1501 1502 1503 1503 1503 1503 1503 1504 1505 1505 1506 1507
1493 1490 1487 1485 1483 1482 1480 1479 1478 1477 1477 1477 1477 1478 1478 1479 1479 1479 1479 1479 1479 1479 1481 1480 1479 1478 1475 1475 1475 1476 1479 1482 1483 1485 1486 1489 1491 1494 1496 1497 1498 1499 1499 1499 1500 1502 1504 1506 1506 1503 1497 1494 1495 1495 1494 1494 1497 1497 1497 1500 1501 1502 1501 1499 1501 1503 1503 1506 1505 1502 1502 1500 1500 1497 1495 1497 1498 1498 1499 1501 1501 1501 1501 1501 1502 1502 1503 1504
1491 1489 1486 1484 1482 1480 1479 1477 1477 1476 1476 1476 1476 1477 1477 1478 1478 1477 1477 1477 1477 1477 1478 1478 1478 1477 1476 1476 1476 1476 1478 1479 1481 1483 1485 1487 1490 1492 1494 1494 1495 1496 1495 1495 1498 1500 1502 1502 1497 1492 1490 1491 1494 1496 1496 1497 1498 1498 1498 1500 1501 1501 1500 1498 1500 1502 1503 1505 1501 1499 1500 1497 1496 1495 1492 1494 1494 1492 1494 1496 1497 1497 1498 1498 1498 1499 1500 1501
1490 1488 1485 1483 1481 1479 1478 1476 1475 1475 1475 1474 1475 1476 1476 1476 1476 1476 1476 1476 1475 1476 1476 1477 1477 1475 1474 1476 1476 1477 1478 1477 1478 1481 1482 1485 1488 1489 1490 1492 1491 1491 1491 1494 1497 1500 1501 1496 1488 1486 1489 1492 1493 1495 1497 1497 1498 1499 1498 1499 1500 1497 1498 1501 1501 1501 1504 1506 1501 1499 1500 1496 1493 1493 1491 1490 1489 1489 1491 1492 1493 1494 1494 1494 1495 1496 1497 1499
1488 1486 1484 1482 1480 1479 1476 1475 1475 1474 1474 1473 1474 1474 1474 1475 1475 1475 1477 1476 1474 1473 1473 1474 1473 1472 1473 1475 1475 1477 1477 1476 1477 1477 1479 1482 1485 1486 1488 1489 1488 1487 1488 1491 1493 1496 1495 1488 1483 1487 1491 1492 1493 1495 1497 1498 1499 1499 1498 1500 1498 1495 1499 1503 1501 1502 1504 1504 1502 1502 1501 1495 1491 1490 1488 1487 1486 1487 1488 1488 1489 1491 1490 1490 1491 1493 1494 1495
1487 1485 1483 1480 1479 1477 1475 1474 1473 1473 1473 1473 1473 1473 1473 1473 1474 1475 1476 1476 1474 1471 1470 1470 1471 1469 1469 1472 1474 1476 1477 1477 1477 1476 1477 1479 1482 1485 1486 1486 1486 1484 1485 1487 1488 1488 1485 1481 1482 1488 1490 1491 1494 1497 1499 1500 1499 1497 1496 1497 1495 1495 1499 1499 1499 1502 1503 1503 1502 1506 1506 1493 1487 1487 1483 1482 1484 1483 1483 1483 1483 1485 1486 1487 1488 1489 1490 1491
1485 1484 1482 1480 1479 1476 1475 1473 1472 1473 1472 1472 1472 1472 1472 1472 1473 1475 1476 1476 1473 1469 1468 1468 1468 1465 1464 1469 1472 1474 1475 1474 1474 1475 1476 1477 1479 1482 1483 1484 1485 1483 1481 1484 1486 1484 1481 1479 1482 1486 1487 1490 1494 1495 1496 1496 1496 1494 1492 1492 1493 1495 1498 1500 1501 1503 1507 1507 1500 1505 1511 1491 1475 1480 1478 1478 1480 1476 1476 1477 1477 1478 1480 1482 1483 1484 1486 1487
1484 1483 1481 1479 1477 1475 1475 1472 1472 1472 1471 1470 1470 1471 1472 1471 1473 1474 1475 1477 1473 1465 1466 1466 1463 1460 1459 1464 1467 1473 1477 1471 1470 1474 1474 1476 1478 1479 1482 1482 1482 1481 1479 1480 1484 1481 1477 1477 1480 1481 1485 1489 1492 1493 1491 1492 1494 1492 1486 1488 1493 1494 1497 1500 1502 1503 1506 1506 1497 1500 1508 1491 1473 1471 1470 1472 1474 1469 1469 1470 1469 1473 1475 1476 1478 1480 1482 1483
1482 1481 1479 1478 1476 1475 1474 1472 1472 1471 1470 1470 1470 1470 1471 1470 1473 1473 1474 1479 1470 1458 1460 1462 1460 1457 1456 1459 1462 1470 1474 1466 1467 1472 1470 1474 1477 1477 1480 1479 1480 1481 1478 1480 1482 1476 1472 1475 1477 1479 1482 1486 1487 1487 1486 1489 1493 1489 1483 1487 1493 1495 1497 1500 1502 1502 1499 1500 1501 1500 1503 1496 1479 1466 1463 1466 1467 1464 1463 1463 1463 1467 1469 1471 1474 1475 1477 1479
1480 1479 1477 1476 1475 1474 1473 1472 1471 1470 1470 1470 1469 1470 1470 1470 1473 1472 1476 1480 1466 1454 1457 1457 1456 1456 1456 1458 1460 1462 1463 1460 1464 1467 1467 1471 1474 1475 1477 1475 1476 1477 1476 1479 1477 1468 1467 1470 1472 1475 1479 1481 1480 1481 1483 1487 1490 1487 1485 1488 1491 1493 1497 1500 1502 1502 1498 1502 1507 1501 1501 1501 1478 1458 1460 1461 1460 1461 1459 1458 1459 1462 1466 1467 1470 1471 1472 1474
1479 1477 1476 1474 1473 1472 1472 1470 1468 1468 1468 1468 1469 1469 1469 1472 1473 1472 1477 1477 1461 1454 1456 1455 1455 1456 1456 1458 1459 1458 1459 1459 1461 1462 1464 1469 1471 1472 1474 1473 1474 1475 1474 1476 1472 1466 1466 1467 1468 1471 1475 1476 1477 1479 1481 1485 1487 1486 1488 1489 1490 1493 1496 1501 1501 1501 1505 1508 1505 1495 1497 1500 1474 1451 1457 1460 1455 1456 1454 1454 1456 1458 1463 1464 1465 1468 1469 1470
1476 1475 1474 1472 1470 1469 1469 1467 1466 1467 1467 1467 1468 1467 1469 1472 1471 1475 1480 1472 1459 1456 1455 1454 1455 1455 1457 1459 1459 1459 1459 1458 1460 1461 1464 1467 1469 1470 1471 1472 1474 1474 1475 1476 1473 1468 1466 1468 1468 1469 1471 1472 1474 1477 1478 1482 1484 1486 1490 1492 1495 1497 1498 1501 1500 1502 1509 1505 1497 1489 1488 1496 1479 1448 1448 1452 1447 1448 1450 1452 1454 1455 1459 1461 1462 1465 1465 1466
1474 1472 1471 1470 1468 1467 1465 1464 1464 1465 1466 1466 1467 1467 1470 1471 1472 1477 1477 1464 1456 1456 1454 1453 1454 1454 1456 1457 1458 1459 1458 1458 1460 1461 1464 1466 1467 1469 1470 1471 1473 1474 1475 1476 1474 1470 1469 1470 1469 1467 1468 1470 1473 1476 1476 1480 1483 1485 1489 1492 1498 1503 1503 1506 1505 1506 1509 1496 1484 1481 1482 1494 1482 1446 1437 1443 1439 1442 1446 1448 1451 1453 1455 1457 1459 1461 1461 1462
1471 1469 1468 1467 1465 1464 1463 1462 1462 1463 1464 1465 1467 1468 1467 1472 1475 1473 1467 1459 1454 1453 1451 1452 1452 1453 1455 1455 1456 1458 1457 1458 1459 1460 1461 1463 1464 1465 1465 1465 1467 1470 1470 1471 1471 1470 1468 1468 1467 1467 1466 1468 1471 1475 1478 1482 1483 1483 1486 1490 1496 1502 1504 1507 1505 1501 1499 1486 1473 1474 1480 1485 1470 1443 1437 1442 1440 1441 1442 1443 1447 1449 1451 1453 1455 1457 1458 1459
1468 1466 1465 1463 1461 1460 1460 1460 1461 1462 1464 1464 1468 1467 1465 1472 1472 1463 1460 1458 1452 1450 1451 1450 1450 1451 1453 1454 1454 1454 1456 1456 1457 1459 1459 1460 1463 1463 1462 1460 1459 1462 1463 1464 1465 1467 1467 1466 1466 1468 1466 1465 1466 1470 1476 1480 1480 1479 1480 1484 1488 1491 1497 1501 1497 1491 1488 1479 1470 1472 1479 1477 1461 1441 1435 1436 1439 1442 1442 1444 1447 1448 1450 1451 1452 1454 1455 1455
1465 1463 1461 1459 1458 1458 1457 1458 1460 1461 1463 1465 1466 1467 1468 1470 1462 1456 1458 1455 1451 1452 1452 1450 1450 1451 1452 1452 1450 1450 1455 1455 1454 1457 1458 1459 1463 1462 1461 1460 1459 1460 1462 1463 1461 1460 1463 1461 1461 1464 1463 1461 1461 1462 1466 1471 1475 1475 1472 1477 1479 1477 1483 1485 1482 1480 1478 1476 1476 1477 1477 1470 1453 1436 1429 1429 1433 1437 1439 1442 1446 1447 1448 1450 1450 1451 1452 1453
1462 1461 1459 1457 1456 1456 1456 1457 1459 1460 1463 1464 1464 1466 1467 1461 1454 1454 1455 1451 1452 1454 1452 1451 1451 1452 1452 1451 1449 1448 1450 1451 1451 1455 1456 1456 1458 1458 1457 1457 1457 1458 1461 1462 1458 1455 1457 1452 1449 1454 1454 1455 1457 1458 1460 1466 1473 1473 1469 1475 1475 1467 1467 1467 1466 1467 1468 1472 1477 1475 1466 1451 1436 1427 1427 1430 1431 1432 1435 1438 1441 1443 1444 1446 1447 1448 1449 1450
1460 1459 1458 1456 1456 1456 1456 1457 1458 1460 1462 1463 1465 1463 1457 1450 1449 1453 1450 1448 1451 1451 1451 1453 1451 1451 1451 1449 1450 1449 1447 1447 1450 1453 1453 1453 1453 1452 1452 1451 1452 1454 1456 1456 1453 1453 1455 1448 1443 1449 1451 1451 1453 1453 1455 1460 1465 1468 1469 1470 1468 1463 1462 1463 1465 1465 1467 1470 1465 1461 1456 1445 1438 1430 1424 1428 1431 1431 1433 1434 1436 1438 1439 1442 1442 1443 1446 1446
1458 1457 1456 1456 1456 1456 1456 1457 1458 1460 1461 1462 1462 1457 1451 1449 1451 1451 1449 1449 1450 1448 1451 1453 1449 1448 1449 1446 1447 1448 1448 1449 1449 1450 1451 1452 1451 1448 1447 1447 1447 1450 1452 1452 1449 1446 1449 1447 1443 1448 1450 1448 1449 1451 1454 1455 1454 1459 1463 1462 1464 1470 1469 1469 1470 1465 1466 1468 1455 1447 1448 1445 1445 1434 1419 1423 1429 1429 1431 1432 1433 1434 1436 1438 1439 1440 1441 1441
1458 1456 1456 1456 1456 1456 1455 1457 1458 1459 1461 1461 1458 1454 1452 1453 1452 1451 1450 1450 1449 1449 1450 1451 1448 1446 1446 1445 1443 1444 1449 1451 1449 1449 1449 1450 1448 1442 1442 1444 1444 1446 1449 1451 1450 1446 1447 1449 1446 1445 1446 1445 1449 1453 1456 1456 1453 1453 1455 1454 1459 1467 1469 1470 1471 1462 1461 1463 1453 1443 1440 1435 1434 1427 1419 1422 1424 1423 1427 1429 1429 1430 1432 1435 1436 1436 1437 1437
1458 1456 1456 1456 1455 1455 1455 1456 1457 1459 1460 1459 1457 1455 1454 1453 1452 1452 1451 1450 1450 1450 1449 1448 1447 1447 1446 1445 1442 1443 1447 1447 1445 1448 1448 1448 1445 1437 1436 1439 1439 1442 1445 1448 1452 1449 1447 1447 1444 1444 1446 1446 1450 1453 1453 1453 1455 1455 1455 1452 1452 1455 1456 1458 1459 1452 1450 1453 1450 1445 1439 1427 1419 1416 1416 1419 1419 1421 1425 1425 1426 1428 1428 1430 1432 1433 1434 1434
1458 1457 1456 1456 1455 1454 1454 1456 1457 1458 1459 1456 1455 1455 1454 1453 1452 1451 1451 1450 1451 1450 1448 1447 1448 1448 1446 1446 1444 1443 1446 1446 1445 1447 1446 1446 1444 1436 1434 1435 1435 1437 1441 1445 1450 1452 1450 1445 1441 1445 1451 1450 1448 1446 1442 1441 1446 1451 1453 1451 1451 1451 1450 1451 1449 1444 1445 1447 1445 1443 1435 1420 1410 1409 1411 1414 1416 1418 1421 1423 1424 1425 1426 1427 1428 1430 1431 1432
1459 1459 1456 1455 1455 1454 1455 1456 1456 1456 1456 1454 1453 1454 1454 1454 1452 1450 1450 1450 1450 1449 1449 1449 1448 1447 1446 1446 1445 1443 1444 1446 1445 1445 1444 1445 1445 1439 1434 1433 1434 1435 1439 1445 1448 1449 1450 1447 1440 1442 1449 1450 1443 1437 1434 1432 1434 1440 1442 1441 1442 1444 1446 1451 1450 1443 1443 1443 1439 1437 1431 1416 1408 1407 1408 1410 1413 1415 1417 1419 1420 1421 1423 1425 1425 1427 1429 1430
1461 1459 1456 1454 1455 1454 1455 1455 1454 1455 1454 1453 1453 1453 1453 1453 1452 1451 1450 1450 1450 1449 1449 1449 1448 1447 1446 1445 1444 1443 1443 1443 1443 1443 1442 1441 1441 1438 1434 1434 1435 1434 1436 1440 1441 1440 1444 1446 1444 1441 1442 1442 1438 1436 1437 1435 1433 1435 1435 1433 1435 1437 1439 1444 1444 1438 1437 1437 1434 1435 1432 1417 1408 1408 1408 1409 1411 1413 1414 1415 1417 1419 1421 1422 1423 1425 1426 1427
1461 1459 1455 1454 1454 1455 1455 1455 1453 1454 1454 1452 1452 1453 1453 1452 1452 1451 1450 1450 1450 1448 1448 1448 1446 1446 1445 1444 1444 1444 1443 1442 1440 1439 1439 1438 1436 1434 1434 1436 1437 1438 1437 1435 1435 1437 1441 1445 1447 1444 1440 1439 1438 1437 1438 1437 1437 1437 1435 1431 1431 1432 1431 1432 1431 1428 1428 1429 1431 1436 1434 1419 1409 1409 1411 1412 1413 1414 1414 1415 1416 1418 1419 1420 1421 1422 1423 1424
1460 1457 1455 1454 1454 1455 1455 1454 1453 1453 1452 1452 1452 1452 1452 1452 1450 1450 1449 1449 1448 1448 1447 1445 1443 1443 1442 1442 1443 1442 1443 1442 1438 1435 1436 1436 1433 1431 1432 1433 1435 1439 1438 1434 1432 1434 1435 1437 1442 1444 1442 1442 1441 1439 1439 1439 1438 1436 1432 1428 1426 1425 1426 1427 1428 1429 1429 1426 1427 1431 1427 1415 1408 1409 1411 1412 1415 1415 1415 1415 1416 1417 1417 1418 1419 1419 1421 1421
1460 1457 1454 1454 1454 1454 1454 1453 1453 1452 1451 1452 1452 1450 1450 1450 1448 1446 1446 1446 1445 1446 1445 1443 1442 1442 1441 1441 1442 1440 1441 1441 1439 1437 1438 1437 1432 1429 1429 1430 1432 1434 1434 1431 1431 1433 1429 1427 1431 1436 1435 1433 1431 1429 1429 1430 1431 1429 1426 1424 1423 1423 1424 1427 1430 1434 1433 1427 1423 1423 1419 1411 1406 1406 1408 1410 1412 1413 1413 1414 1415 1415 1416 1416 1417 1418 1419 1420
1461 1458 1455 1454 1453 1454 1454 1453 1453 1453 1451 1452 1451 1448 1448 1448 1445 1444 1444 1444 1442 1443 1443 1441 1440 1441 1440 1440 1441 1440 1439 1439 1439 1439 1438 1435 1431 1428 1427 1427 1429 1429 1428 1428 1430 1435 1433 1423 1420 1423 1421 1417 1415 1412 1413 1418 1421 1423 1423 1422 1422 1421 1420 1423 1425 1425 1425 1423 1418 1414 1414 1412 1406 1403 1403 1405 1408 1409 1408 1410 1412 1414 1414 1415 1415 1416 1417 1418
1461 1459 1458 1456 1454 1453 1452 1452 1452 1452 1450 1450 1449 1446 1446 1446 1444 1443 1443 1441 1440 1440 1440 1439 1438 1439 1437 1436 1438 1439 1438 1438 1439 1438 1436 1432 1428 1425 1425 1427 1427 1425 1426 1427 1428 1433 1436 1428 1420 1418 1414 1409 1406 1404 1406 1413 1417 1418 1417 1416 1416 1417 1418 1419 1418 1415 1416 1418 1413 1407 1409 1410 1403 1397 1397 1399 1402 1403 1403 1404 1407 1410 1412 1412 1413 1414 1415 1416
1461 1459 1459 1459 1457 1454 1452 1452 1452 1451 1450 1449 1446 1444 1444 1444 1443 1442 1441 1440 1439 1439 1439 1437 1434 1433 1432 1433 1435 1436 1437 1438 1437 1435 1432 1429 1427 1425 1425 1426 1425 1424 1425 1427 1428 1430 1433 1428 1422 1420 1415 1410 1406 1403 1403 1408 1412 1412 1412 1411 1411 1414 1417 1417 1416 1412 1411 1411 1408 1404 1404 1403 1399 1394 1392 1393 1396 1397 1397 1400 1404 1406 1409 1410 1411 1412 1413 1413
1462 1461 1459 1459 1458 1455 1453 1453 1452 1451 1449 1447 1445 1442 1442 1442 1440 1438 1438 1439 1438 1437 1438 1435 1429 1428 1429 1430 1432 1433 1433 1434 1433 1429 1427 1426 1426 1426 1426 1424 1423 1424 1425 1426 1427 1429 1430 1426 1422 1421 1420 1413 1407 1404 1402 1405 1408 1408 1407 1407 1407 1408 1411 1413 1414 1412 1409 1406 1405 1405 1402 1399 1397 1394 1388 1389 1392 1394 1396 1399 1401 1403 1405 1407 1409 1410 1410 1410
1464 1463 1461 1460 1458 1455 1453 1452 1451 1450 1447 1445 1442 1439 1438 1438 1437 1434 1434 1436 1436 1435 1435 1431 1426 1427 1428 1428 1430 1429 1425 1424 1424 1422 1423 1425 1424 1425 1424 1422 1421 1423 1425 1426 1426 1428 1428 1423 1417 1420 1422 1415 1408 1405 1403 1402 1404 1404 1402 1401 1402 1403 1406 1409 1412 1412 1411 1410 1408 1406 1404 1399 1395 1392 1387 1386 1388 1391 1393 1394 1397 1399 1401 1404 1405 1406 1406 1406
1465 1464 1463 1462 1458 1454 1452 1451 1450 1449 1445 1442 1440 1437 1435 1434 1433 1431 1430 1430 1430 1431 1431 1428 1425 1426 1426 1425 1425 1421 1416 1418 1419 1417 1419 1422 1421 1421 1421 1418 1418 1421 1424 1424 1424 1425 1426 1421 1414 1418 1420 1411 1405 1405 1402 1400 1402 1401 1398 1397 1398 1400 1402 1404 1406 1407 1408 1409 1409 1407 1404 1398 1392 1389 1386 1383 1383 1387 1388 1389 1393 1396 1397 1399 1401 1401 1402 1403
1464 1463 1462 1462 1458 1454 1452 1450 1449 1447 1443 1439 1437 1435 1434 1432 1431 1431 1429 1426 1425 1425 1426 1425 1425 1425 1423 1420 1418 1414 1414 1417 1417 1416 1418 1418 1416 1416 1416 1414 1415 1417 1419 1421 1421 1421 1422 1419 1414 1415 1415 1405 1398 1399 1399 1400 1400 1395 1392 1394 1395 1396 1398 1397 1397 1397 1397 1399 1401 1400 1397 1391 1386 1385 1384 1381 1380 1382 1383 1383 1386 1390 1392 1394 1395 1396 1397 1399